{"data":{"norad_id":64924,"epoch":"2026-09-20T10:11:53.337696Z","epoch_age_seconds":130727,"freshness":"FRESH","line1":"1 64924U 25157W   26263.42492289  .00013600  00000+0  44929-3 0  9994","line2":"2 64924  53.1596 159.3656 0000911 119.7130 240.3962 15.31694202 65914","mean_motion":15.31694202,"eccentricity":9.11e-5,"inclination_deg":53.1596,"raan_deg":159.3656,"arg_perigee_deg":119.713,"mean_anomaly_deg":240.3962,"bstar":0.00044929,"rev_number":6591,"period_min":94.013543833993,"perigee_km":470.13334454766,"apogee_km":471.38121308526,"semimajor_km":6848.8942788165,"source":"CELESTRAK","updated_at":"2026-09-21T09:00:35.483836Z"}}